[[{"header":{"parameterUnit":"m.s-1","parameterCategory":1,"la1":30.2991,"la2":30.254,"lo1":-89.0895,"lo2":-89.0444,"dy":0.0017,"dx":0.0017,"nx":28,"ny":28,"refTime":"2024-03-27T09:00:00:Z","depth":0,"parameterNumber":2,"parameterNumberName":"U-component_of_WINDS"},"data":[0,0,0,0,0,0,0,0,0,0,0,0,0,0,0,0,0,0,0,0,0,0,0,0,0,0,0,0,0,0,0,0,0,0,0,0,0,0,0,0,0,0,0,0,0,0,0,0,0,0,0,0,0,0,0,0,0,0,-0.0611,-0.0611,0,-0.0646,-0.0646,-0.0646,-0.0635,-0.0634,-0.0633,-0.0632,-0.0671,-0.0672,-0.0674,0,0,0,0,0,0,0,0,0,0,0,0,0,-0.0536,-0.0537,-0.0611,-0.0611,-0.0612,-0.0646,-0.0646,-0.0646,-0.0635,-0.0634,-0.0633,-0.0632,-0.067,-0.0672,-0.0674,0,0,0,0,0,0,0,0,0,0,0,0,0,-0.0569,-0.0538,-0.0611,-0.061,-0.061,-0.0645,-0.0646,-0.0647,-0.0635,-0.0634,-0.0633,-0.0632,-0.067,-0.0672,-0.0675,-0.0714,0,0,-0.0683,-0.0684,0,0,0,0,0,0,0,0,-0.0568,-0.0572,-0.061,-0.061,-0.061,-0.0635,-0.0634,-0.0669,-0.0635,-0.0626,-0.0632,-0.0631,-0.066,-0.0663,-0.0672,-0.0715,-0.0717,-0.0683,-0.0684,-0.0685,-0.0686,0,0,0,0,0,0,0,-0.0565,-0.0571,-0.0625,-0.061,-0.0611,-0.0608,-0.0612,-0.064,-0.0649,-0.0626,-0.0626,-0.063,-0.066,-0.067,-0.0673,-0.0718,-0.0683,-0.0685,-0.0687,-0.0688,-0.0794,-0.0796,0,0,0,0,0,0,-0.0562,-0.0569,-0.0624,-0.0626,-0.0586,-0.0611,-0.0614,-0.0628,-0.0648,-0.065,-0.0631,-0.0629,-0.0666,-0.067,-0.0674,-0.0722,-0.0685,-0.0688,-0.0689,-0.0793,-0.0795,-0.0796,0,0,0,0,0,0,-0.0561,-0.0567,-0.0622,-0.0597,-0.0604,-0.0613,-0.0628,-0.0629,-0.0639,-0.0652,-0.0653,-0.0639,-0.0665,-0.0671,-0.0704,-0.0723,-0.0689,-0.0691,-0.0792,-0.0794,-0.0795,-0.0816,0,0,0,0,0,0,-0.0559,-0.0567,-0.0582,-0.0597,-0.0605,-0.0651,-0.063,-0.0631,-0.0643,-0.0642,-0.066,-0.0662,-0.0665,-0.07,-0.0706,-0.0726,-0.0693,-0.079,-0.0792,-0.0795,-0.0814,-0.0819,-0.0823,0,0,0,0,0,-0.0556,-0.0587,-0.0582,-0.0589,-0.0624,-0.0652,-0.0656,-0.0658,-0.0645,-0.066,-0.0668,-0.0662,-0.0719,-0.0703,-0.0711,-0.0731,-0.0789,-0.0792,-0.0795,-0.0812,-0.0818,-0.0823,0,0,0,0,0,0,-0.0574,-0.0589,-0.0584,-0.0621,-0.0635,-0.065,-0.0669,-0.0664,-0.0683,-0.068,-0.0682,-0.0686,-0.072,-0.0729,-0.0711,-0.077,-0.0752,-0.0757,-0.0763,-0.0769,-0.0773,-0.0771,-0.0696,0,0,0,0,0,-0.0582,-0.0603,-0.0615,-0.0646,-0.0653,-0.066,-0.0672,-0.0672,-0.0687,-0.0693,-0.0703,-0.0719,-0.0741,-0.0755,-0.0775,-0.0815,-0.0819,-0.0832,-0.0837,-0.084,-0.0844,-0.0866,-0.0872,-0.0805,-0.0805,-0.0805,0,0,-0.06,-0.061,-0.0624,-0.065,-0.0661,-0.0683,-0.0665,-0.0689,-0.0706,-0.0697,-0.0729,-0.0737,-0.0754,-0.079,-0.0807,-0.0799,-0.0863,-0.0844,-0.0846,-0.0849,-0.0869,-0.0876,-0.0881,-0.0807,-0.0807,-0.0807,0,0,-0.0643,-0.0652,-0.068,-0.069,-0.0707,-0.071,-0.0717,-0.0732,-0.0737,-0.0768,-0.0762,-0.0782,-0.0819,-0.0831,-0.0843,-0.0889,-0.0884,-0.0895,-0.0919,-0.094,-0.0945,-0.095,-0.0967,-0.0973,-0.0899,-0.0899,-0.0899,0,-0.0663,-0.0695,-0.0694,-0.0719,-0.0731,-0.0722,-0.075,-0.0761,-0.0783,-0.0792,-0.0782,-0.0828,-0.0839,-0.0878,-0.0889,-0.0898,-0.0906,-0.0894,-0.0944,-0.0949,-0.0953,-0.097,-0.0976,-0.0901,-0.09,-0.09,-0.09,0,-0.0719,-0.0742,-0.0762,-0.0783,-0.0797,-0.0823,-0.0826,-0.084,-0.0838,-0.0843,-0.0875,-0.0888,-0.0911,-0.092,-0.0919,-0.0959,-0.0953,-0.0943,-0.0926,-0.0961,-0.0976,-0.0983,-0.0903,-0.0902,-0.0902,-0.0901,0,0,-0.0777,-0.0795,-0.0803,-0.0812,-0.0829,-0.0846,-0.0872,-0.0893,-0.0906,-0.0921,-0.0943,-0.0973,-0.0964,-0.0977,-0.0977,-0.0995,-0.1031,-0.0983,-0.0984,-0.0993,-0.1077,-0.1085,-0.1092,-0.1027,-0.1028,-0.1029,-0.1075,0,-0.0822,-0.0866,-0.0865,-0.0907,-0.0928,-0.0919,-0.0941,-0.0954,-0.0959,-0.0978,-0.0983,-0.1005,-0.0991,-0.0999,-0.1016,-0.1023,-0.1048,-0.102,-0.1049,-0.105,-0.1046,-0.11,-0.1109,-0.1152,-0.1081,-0.1082,-0.1083,0,-0.0881,-0.0897,-0.094,-0.0953,-0.0962,-0.0982,-0.1001,-0.1019,-0.1033,-0.1035,-0.1049,-0.1045,-0.1071,-0.1052,-0.1088,-0.1069,-0.108,-0.1085,-0.1087,-0.1091,-0.107,-0.1106,-0.1165,-0.1172,-0.1093,-0.1092,-0.1091,0,-0.092,-0.0952,-0.0982,-0.099,-0.1006,-0.102,-0.1027,-0.104,-0.1053,-0.1069,-0.1077,-0.1097,-0.1108,-0.1124,-0.1126,-0.1111,-0.1163,-0.1143,-0.1166,-0.1166,-0.1179,-0.1178,-0.1242,-0.1184,-0.1184,-0.1184,-0.1184,0,-0.0971,-0.0998,-0.1,-0.1018,-0.1048,-0.1047,-0.1077,-0.1082,-0.1094,-0.1114,-0.1107,-0.1126,-0.1127,-0.1146,-0.1148,-0.1178,-0.1183,-0.1186,-0.1187,-0.1188,-0.1187,-0.1196,-0.1194,-0.1186,-0.1185,-0.1185,-0.1184,0,-0.1021,-0.1022,-0.1055,-0.1066,-0.1069,-0.1091,-0.1101,-0.1119,-0.1122,-0.1147,-0.1153,-0.1159,-0.1181,-0.1184,-0.1211,-0.1212,-0.1248,-0.1245,-0.1244,-0.1244,-0.1266,-0.1265,-0.1339,-0.1349,-0.1284,-0.1284,-0.1285,0,-0.1054,-0.1074,-0.1087,-0.11,-0.1107,-0.1128,-0.114,-0.1139,-0.1152,-0.1169,-0.1185,-0.1206,-0.1224,-0.126,-0.1267,-0.1287,-0.1285,-0.1309,-0.1288,-0.1288,-0.1286,-0.1286,-0.1288,-0.1314,-0.1315,-0.1315,-0.1316,0,-0.1113,-0.1113,-0.1131,-0.1149,-0.1163,-0.1178,-0.1191,-0.1202,-0.1202,-0.1217,-0.124,-0.1253,-0.1279,-0.1301,-0.132,-0.1328,-0.1323,-0.1322,-0.1329,-0.1331,-0.1329,-0.1331,-0.1256,-0.1321,-0.132,-0.132,-0.132,-0.1319,-0.1157,-0.1174,-0.1186,-0.1206,-0.1215,-0.1228,-0.1245,-0.125,-0.1268,-0.1289,-0.1287,-0.1312,-0.1324,-0.135,-0.1359,-0.1378,-0.1371,-0.138,-0.1382,-0.1385,-0.1388,-0.1325,-0.1382,-0.1382,-0.1382,-0.1381,-0.1381,0,-0.1216,-0.1223,-0.1241,-0.126,-0.1275,-0.1266,-0.128,-0.1294,-0.1316,-0.1328,-0.1345,-0.137,-0.139,-0.1398,-0.1418,-0.1432,-0.143,-0.1438,-0.1438,-0.144,-0.1393,-0.1386,-0.1439,-0.1439,-0.1439,-0.1439,-0.1439,-0.1439,-0.125,-0.1279,-0.128,-0.1314,-0.132,-0.1344,-0.1352,-0.1364,-0.1373,-0.1402,-0.1418,-0.1423,-0.1433,-0.1454,-0.1472,-0.1474,-0.1482,-0.1491,-0.1492,-0.1449,-0.1443,-0.1437,-0.1431,-0.1493,-0.1493,-0.1537,-0.1537,-0.1537]},{"header":{"parameterUnit":"m.s-1","parameterCategory":1,"la1":30.2991,"la2":30.254,"lo1":-89.0895,"lo2":-89.0444,"dy":0.0017,"dx":0.0017,"nx":28,"ny":28,"refTime":"2024-03-27T09:00:00:Z","depth":0,"parameterNumber":3,"parameterNumberName":"V-component_of_WINDS"},"data":[0,0,0,0,0,0,0,0,0,0,0,0,0,0,0,0,0,0,0,0,0,0,0,0,0,0,0,0,0,0,0,0,0,0,0,0,0,0,0,0,0,0,0,0,0,0,0,0,0,0,0,0,0,0,0,0,0,0,-4.7611,-4.7612,0,-4.776,-4.7762,-4.7764,-4.7732,-4.7729,-4.7727,-4.7724,-4.7874,-4.7881,-4.7887,0,0,0,0,0,0,0,0,0,0,0,0,0,-4.7296,-4.7302,-4.7611,-4.7612,-4.7614,-4.776,-4.7762,-4.7764,-4.7733,-4.7729,-4.7726,-4.7723,-4.7872,-4.788,-4.7888,0,0,0,0,0,0,0,0,0,0,0,0,0,-4.7438,-4.7304,-4.761,-4.7616,-4.7618,-4.7759,-4.7762,-4.7765,-4.7733,-4.7729,-4.7725,-4.7721,-4.787,-4.7879,-4.7889,-4.8033,0,0,-4.7919,-4.7923,0,0,0,0,0,0,0,0,-4.743,-4.745,-4.7614,-4.7616,-4.7619,-4.7723,-4.7706,-4.7854,-4.7734,-4.769,-4.7724,-4.7719,-4.7827,-4.784,-4.7877,-4.804,-4.8046,-4.792,-4.7926,-4.793,-4.7933,0,0,0,0,0,0,0,-4.742,-4.7443,-4.767,-4.7616,-4.7619,-4.7611,-4.7627,-4.7734,-4.778,-4.7693,-4.7691,-4.7709,-4.7828,-4.7868,-4.7881,-4.8048,-4.792,-4.7928,-4.7935,-4.7938,-4.8337,-4.8342,0,0,0,0,0,0,-4.7408,-4.7435,-4.7665,-4.7674,-4.7512,-4.762,-4.7637,-4.7694,-4.7778,-4.7787,-4.7713,-4.7707,-4.7853,-4.7869,-4.7886,-4.8061,-4.793,-4.7939,-4.7945,-4.8333,-4.8338,-4.8343,0,0,0,0,0,0,-4.7402,-4.7429,-4.7659,-4.7554,-4.7583,-4.763,-4.7693,-4.7699,-4.7739,-4.7793,-4.7801,-4.7746,-4.7851,-4.7872,-4.7997,-4.8066,-4.7944,-4.7953,-4.8327,-4.8335,-4.8341,-4.8411,0,0,0,0,0,0,-4.7393,-4.7427,-4.7482,-4.7556,-4.7589,-4.7768,-4.7698,-4.7705,-4.7757,-4.7751,-4.7826,-4.7835,-4.7849,-4.7982,-4.8007,-4.8077,-4.796,-4.8321,-4.833,-4.8339,-4.8403,-4.842,-4.8434,0,0,0,0,0,-4.7382,-4.7495,-4.7485,-4.7513,-4.7659,-4.7772,-4.7791,-4.7806,-4.7762,-4.7818,-4.7853,-4.7832,-4.8054,-4.7995,-4.8023,-4.8097,-4.8317,-4.8328,-4.8338,-4.8396,-4.8417,-4.8434,0,0,0,0,0,0,-4.7428,-4.7505,-4.7495,-4.7636,-4.7698,-4.7767,-4.7838,-4.7827,-4.7902,-4.7893,-4.7908,-4.7925,-4.8053,-4.8087,-4.802,-4.8241,-4.8179,-4.8196,-4.8214,-4.8234,-4.8249,-4.8239,-4.7969,0,0,0,0,0,-4.7455,-4.7541,-4.7603,-4.7721,-4.7753,-4.779,-4.784,-4.7847,-4.7911,-4.7937,-4.7981,-4.8044,-4.8128,-4.8182,-4.8263,-4.8408,-4.8424,-4.8472,-4.8488,-4.85,-4.8515,-4.8595,-4.8618,-4.8378,-4.8378,-4.8378,0,0,-4.751,-4.7563,-4.7616,-4.7732,-4.7781,-4.787,-4.7813,-4.7908,-4.7975,-4.7951,-4.8073,-4.8107,-4.8178,-4.8314,-4.8376,-4.8347,-4.8584,-4.8514,-4.8523,-4.8531,-4.8608,-4.8631,-4.8651,-4.8385,-4.8384,-4.8383,0,0,-4.7658,-4.7706,-4.7811,-4.7861,-4.7936,-4.796,-4.7986,-4.8057,-4.808,-4.8202,-4.8186,-4.8264,-4.8408,-4.846,-4.8505,-4.8674,-4.8658,-4.8699,-4.8781,-4.8859,-4.8878,-4.8895,-4.8956,-4.8978,-4.8713,-4.8713,-4.8713,0,-4.7717,-4.7851,-4.7865,-4.7964,-4.8016,-4.7999,-4.8106,-4.8153,-4.8251,-4.8287,-4.8252,-4.8434,-4.848,-4.8629,-4.867,-4.8707,-4.8736,-4.8691,-4.8874,-4.8891,-4.8907,-4.8966,-4.8989,-4.8718,-4.8717,-4.8717,-4.8716,0,-4.7921,-4.8015,-4.809,-4.8186,-4.8246,-4.8347,-4.8377,-4.8436,-4.8437,-4.8465,-4.859,-4.8645,-4.8737,-4.8772,-4.8774,-4.8922,-4.8901,-4.8871,-4.8809,-4.8935,-4.899,-4.9012,-4.8725,-4.8723,-4.8721,-4.872,0,0,-4.8102,-4.8205,-4.8233,-4.8277,-4.8359,-4.8431,-4.8532,-4.8623,-4.8674,-4.8741,-4.8827,-4.895,-4.8922,-4.8974,-4.8981,-4.9049,-4.9181,-4.901,-4.9012,-4.9041,-4.9349,-4.9372,-4.9398,-4.917,-4.9175,-4.9178,-4.9343,0,-4.8257,-4.8437,-4.8453,-4.8614,-4.8701,-4.8687,-4.8775,-4.8835,-4.8864,-4.8941,-4.8972,-4.906,-4.9016,-4.9048,-4.9115,-4.9151,-4.9243,-4.9139,-4.925,-4.9254,-4.9234,-4.9426,-4.9451,-4.9604,-4.9365,-4.9368,-4.9371,0,-4.8463,-4.8539,-4.8709,-4.878,-4.8817,-4.8896,-4.8982,-4.9056,-4.9123,-4.9139,-4.9198,-4.9196,-4.93,-4.9234,-4.9377,-4.9306,-4.9353,-4.9377,-4.9383,-4.9395,-4.9321,-4.9444,-4.9653,-4.9677,-4.9405,-4.9402,-4.94,0,-4.8579,-4.8723,-4.8844,-4.8882,-4.8968,-4.9024,-4.9062,-4.9126,-4.918,-4.9254,-4.929,-4.9374,-4.9421,-4.9487,-4.9508,-4.9458,-4.9651,-4.9587,-4.9668,-4.9667,-4.971,-4.9707,-4.993,-4.9738,-4.9738,-4.9737,-4.9737,0,-4.8752,-4.8857,-4.8897,-4.8972,-4.9089,-4.9106,-4.9222,-4.9257,-4.9314,-4.9395,-4.9388,-4.9463,-4.9486,-4.9566,-4.9583,-4.97,-4.9721,-4.9737,-4.974,-4.9738,-4.9737,-4.9769,-4.976,-4.9743,-4.9742,-4.9741,-4.974,0,-4.8901,-4.8933,-4.9064,-4.9135,-4.9156,-4.9239,-4.93,-4.9372,-4.9399,-4.9502,-4.9527,-4.957,-4.9664,-4.9691,-4.9803,-4.9815,-4.9953,-4.9946,-4.993,-4.9931,-5.0011,-5.0003,-5.0264,-5.03,-5.0083,-5.0085,-5.0087,0,-4.901,-4.9091,-4.9172,-4.9226,-4.9267,-4.9354,-4.941,-4.943,-4.9488,-4.9573,-4.9634,-4.9727,-4.9803,-4.9953,-4.9994,-5.008,-5.0076,-5.0161,-5.0089,-5.0085,-5.0079,-5.0074,-5.0083,-5.0175,-5.0178,-5.0179,-5.0181,0,-4.92,-4.9212,-4.9293,-4.9381,-4.9448,-4.9517,-4.9583,-4.9628,-4.9658,-4.9724,-4.982,-4.9879,-4.9995,-5.0087,-5.0175,-5.0213,-5.0203,-5.0204,-5.0227,-5.0226,-5.0215,-5.0223,-4.9969,-5.0198,-5.0196,-5.0195,-5.0194,-5.0193,-4.9334,-4.9405,-4.9474,-4.9565,-4.9617,-4.968,-4.9752,-4.9789,-4.987,-4.9967,-4.9973,-5.0078,-5.0145,-5.0262,-5.0305,-5.0387,-5.0362,-5.0396,-5.0404,-5.0413,-5.042,-5.0201,-5.0403,-5.0402,-5.0402,-5.0402,-5.0401,0,-4.9524,-4.9568,-4.9652,-4.9746,-4.9818,-4.9802,-4.9875,-4.9936,-5.0029,-5.0092,-5.0168,-5.0279,-5.0369,-5.0418,-5.0508,-5.0564,-5.0561,-5.0587,-5.0583,-5.0593,-5.0437,-5.0408,-5.0588,-5.0588,-5.0588,-5.0587,-5.0587,-5.0587,-4.9632,-4.9753,-4.9773,-4.992,-4.9963,-5.0067,-5.011,-5.0168,-5.0219,-5.0345,-5.042,-5.0451,-5.0509,-5.0603,-5.0685,-5.0697,-5.0731,-5.076,-5.0769,-5.0622,-5.0603,-5.0585,-5.0559,-5.0767,-5.0767,-5.0918,-5.092,-5.0921]}]]